GW5866 Weather Reports


time (UTC)temp
C
wind
direction
speed
KPH
gust
KPH
rain 1hr
cm
rain 24hr
cm
rain mn
cm
humidity
%
barometer
mb
20260505183036 28 215 4.8 16.1 0.00 0.00 0.00 34 1014.9
20260505181503 28 245 6.4 22.5 0.00 0.00 0.00 35 1015.1
20260505180019 28 275 4.8 14.5 0.00 0.00 0.00 36 1015.2
20260505174527 28 240 6.4 19.3 0.00 0.00 0.00 35 1015.1
20260505173028 28 238 8.0 20.9 0.00 0.00 0.00 36 1015.1
20260505171512 27 224 4.8 22.5 0.00 0.00 0.00 39 1015.3
20260505170013 27 263 3.2 19.3 0.00 0.00 0.00 39 1015.5
20260505164528 27 275 6.4 14.5 0.00 0.00 0.00 39 1015.6
20260505163023 27 263 4.8 17.7 0.00 0.00 0.00 41 1015.8
20260505161523 26 279 4.8 20.9 0.00 0.00 0.00 40 1015.9
20260505153026 26 275 6.4 12.9 0.00 0.00 0.00 44 1016.0
20260505151520 25 285 4.8 14.5 0.00 0.00 0.00 45 1016.0
20260505124527 18 219 4.8 11.3 0.00 0.00 0.00 60 1016.4
20260505123011 18 272 1.6 11.3 0.00 0.00 0.00 63 1016.5
20260505121520 17 233 1.6 12.9 0.00 0.00 0.00 65 1016.4
20260505120033 17 289 4.8 12.9 0.00 0.00 0.00 66 1016.4
20260505114530 16 242 3.2 12.9 0.00 0.00 0.00 68 1016.3
20260505113028 16 223 1.6 11.3 0.00 0.00 0.00 70 1016.2
20260505111517 15 261 3.2 9.7 0.00 0.00 0.00 70 1016.2
20260505101526 15 242 1.6 12.9 0.00 0.00 0.00 69 1015.4
20260505100028 15 219 3.2 8.0 0.00 0.00 0.00 69 1015.2
20260505094528 15 222 1.6 12.9 0.00 0.00 0.00 68 1015.2
20260505093032 15 254 0.0 14.5 0.00 0.00 0.00 68 1015.0
20260505091539 16 237 1.6 8.0 0.00 0.00 0.00 67 1014.9
20260505090043 16 223 1.6 12.9 0.00 0.00 0.00 66 1014.8
20260505084524 16 221 1.6 12.9 0.00 0.00 0.00 66 1014.7
20260505083027 16 288 4.8 11.3 0.00 0.00 0.00 65 1014.6
20260505081537 16 283 1.6 14.5 0.00 0.00 0.00 65 1014.6
20260505080045 16 311 3.2 17.7 0.00 0.00 0.00 65 1014.5
20260505074520 16 265 1.6 6.4 0.00 0.00 0.00 64 1014.6
20260505073027 16 225 1.6 9.7 0.00 0.00 0.00 64 1014.6
20260505071528 17 292 4.8 11.3 0.00 0.00 0.00 64 1014.5
20260505070027 17 232 4.8 19.3 0.00 0.00 0.00 63 1014.5
20260505064528 17 229 1.6 12.9 0.00 0.00 0.00 62 1014.5
20260505063022 17 208 4.8 14.5 0.00 0.00 0.00 61 1014.4
20260505061526 17 257 1.6 9.7 0.00 0.00 0.00 61 1014.4
20260505060029 17 271 1.6 14.5 0.00 0.00 0.00 61 1014.5
20260505054528 17 291 4.8 25.7 0.00 0.00 0.00 60 1014.6
20260505053028 17 271 3.2 12.9 0.00 0.00 0.00 60 1014.8
20260505051525 17 317 1.6 17.7 0.00 0.00 0.00 60 1014.6
20260505041545 18 226 4.8 22.5 0.00 0.00 0.00 60 1014.7
20260505040027 18 216 4.8 20.9 0.00 0.00 0.00 60 1014.8
20260505034528 18 263 4.8 16.1 0.00 0.00 0.00 59 1014.6
20260505033028 18 273 3.2 17.7 0.00 0.00 0.00 59 1014.6
20260505031536 18 228 6.4 24.1 0.00 0.00 0.00 59 1014.6
20260505030032 18 249 4.8 20.9 0.00 0.00 0.00 60 1014.6
20260505024507 18 269 8.0 22.5 0.00 0.00 0.00 60 1014.5
20260505023016 19 275 4.8 16.1 0.00 0.00 0.00 61 1014.4
20260505021525 19 165 6.4 27.4 0.00 0.00 0.00 60 1014.4
20260505020022 19 186 6.4 24.1 0.00 0.00 0.00 60 1014.4
20260505014527 20 259 6.4 20.9 0.00 0.00 0.00 60 1014.4
20260505013016 20 192 6.4 25.7 0.00 0.00 0.00 59 1014.1
20260505011527 20 214 8.0 25.7 0.00 0.00 0.00 58 1014.1
20260505010020 20 217 4.8 19.3 0.00 0.00 0.00 58 1013.8
20260505004533 20 188 8.0 20.9 0.00 0.00 0.00 57 1013.6
20260505003025 21 247 8.0 29.0 0.00 0.00 0.00 55 1013.5
20260505001514 21 194 6.4 19.3 0.00 0.00 0.00 54 1013.4
20260505000028 22 267 8.0 20.9 0.00 0.00 0.00 51 1013.1
20260504234523 22 236 9.7 25.7 0.00 0.00 0.00 48 1013.0
20260504233026 23 190 3.2 9.7 0.00 0.00 0.00 36 1012.7
20260504231514 23 175 1.6 12.9 0.00 0.00 0.00 36 1012.5
20260504230020 24 223 3.2 22.5 0.00 0.00 0.00 35 1012.4
20260504224522 24 276 3.2 14.5 0.00 0.00 0.00 35 1012.5
20260504223027 25 275 3.2 12.9 0.00 0.00 0.00 34 1012.4
20260504221532 25 250 4.8 20.9 0.00 0.00 0.00 33 1012.4
20260504220018 25 238 3.2 14.5 0.00 0.00 0.00 33 1012.4
20260504214523 25 306 6.4 16.1 0.00 0.00 0.00 33 1012.4
20260504213045 25 273 3.2 27.4 0.00 0.00 0.00 33 1012.5
20260504211525 25 259 8.0 29.0 0.00 0.00 0.00 32 1012.5
20260504210018 26 199 6.4 22.5 0.00 0.00 0.00 31 1012.5
20260504204519 26 180 3.2 12.9 0.00 0.00 0.00 31 1012.7
20260504203021 26 211 3.2 17.7 0.00 0.00 0.00 31 1012.7
20260504201532 26 256 6.4 19.3 0.00 0.00 0.00 31 1012.7
20260504200016 26 241 3.2 12.9 0.00 0.00 0.00 33 1012.7
20260504194521 26 286 3.2 14.5 0.00 0.00 0.00 32 1013.1
20260504193024 26 254 3.2 12.9 0.00 0.00 0.00 32 1013.3
20260504191525 26 57 6.4 16.1 0.00 0.00 0.00 33 1013.4
20260504190010 26 254 3.2 25.7 0.00 0.00 0.00 33 1013.7
20260504184518 26 276 6.4 17.7 0.00 0.00 0.00 32 1013.7